Погода Илирней

Погода Илирней : погода сейчас, прогноз погоды и архив. Всё, что Вы хотите узнать о погоде Илирней!

Хотите узнать прогноз погоды Илирней? Тогда Вам сюда: Погода Илирней

Поиск расширенной информации на нашем сайте:

Другие новости

Новости СМИ2

Главная страница сайта

Новости сайта

03.07.2017

Напоминаем, что на нашем специализированном сайте Метеоцентр.Азия вы можете получить высокодетализированные автоматические прогнозы погоды по пунктам России, СНГ и мира в авиационном формате (включающие направление и скорость ветра, видимость, явления погоды, количество и форму облачности, нижнюю и верхнюю границу облачности).


Погода Илирней - сегодня

Время (UTC), дата Ветер
(°,м/с) 
Видим.   Явления Облачность Т
(°С)
Тd
(°С)
f(%) Тe
(°С)
Pmin
(гПа)
dP
(гПа)
Po
(мм)
O2
(г/м3)
Тmin Tmax R s Состояние
почвы
03 11.06.18 080 (В) 3{07}  20000 м    ясно 
+16.1 +0.2 34 +16  1027  -0.3  739  281           
06 11.06.18 090 (В) 5{07}  20000 м    3/0 верхняя 
[Ci fib]
+16 -0.2 33 +16  1026.8  -0.2  739  281           
12 11.06.18 090 (В) 2{07}  20000 м    ясно 
+8.6 -0.7 52 +9  1028.3  0.6  739  289           
15 11.06.18 тихо () {04}  20000 м    ясно 
+2 -0.2 85 +2  1029.8  0.5  739  296           
18 11.06.18 тихо () {02}  20000 м    ясно 
+6.3 +0.7 67 +6  1028.9  -0.2  739  291           
03 12.06.18 110 (В) 1{07}  20000 м    3/0 верхняя 
[Ci sp]
+21.3 -0.2 24 +21  1022.4  -2  736  275           
06 12.06.18 120 (ЮВ) 1{04}  20000 м    3/0 верхняя 
[Ci sp]
+21 +0.4 25 +21  1020.9  -1.5  735  275           
12 12.06.18 тихо () {03}  20000 м    ясно 
+8.6 -0.7 52 +9  1024.1  0.6  736  287           
15 12.06.18 тихо () {02}  20000 м    ясно 
+7.1 +0.9 65 +7  1024.8  0.6  736  289           
18 12.06.18 тихо () {01}  20000 м    ясно 
+3.3 -3.8 60 +3  1025.1  0.7  736  293           
00 13.06.18 тихо () {01}  20000 м    ясно 
+20.1 +2.9 32 +20  1024  0.6  737  276           
03 13.06.18 тихо () {02}  20000 м    ясно 
+22.1 +3.8 30 +22  1022.8  -0.9  737  274           
06 13.06.18 320 (СЗ) 1{06}  20000 м    3/0 верхняя 
[Ci]
+21.4 +3.2 30 +21  1021.9  -1  736  274           
12 13.06.18 тихо () {04}  20000 м    ясно 
+10.2 -6.7 30 +10  1024  0.2  736  287           
15 13.06.18 тихо () {04}  20000 м    ясно 
+8.1 -3.8 43 +8  1024.7  0.4  736  289           
18 13.06.18 тихо () {03}  20000 м    ясно 
+5.4 -4.6 48 +5  1025.6  0.5  737  292           
00 14.06.18 тихо () {01}  20000 м    ясно 
+20.8 +4 33 +21  1022.6  -0.3  736  275           
03 14.06.18 тихо () {01}  20000 м    ясно 
+22.5 +3.6 29 +23  1022  -0.5  736  273           
06 14.06.18 тихо () {03}  20000 м    ясно 
+25 -2.5 16 +25  1019.1  -2.3  734  271           
12 14.06.18 тихо () {06}  20000 м    ясно 
+13.4 +1.5 44 +13  1015.4  -2.8  730  280           
15 14.06.18 тихо () {03}  20000 м    ясно 
+7.5 +1.3 65 +8  1016.1  -0.2  730  286           
18 14.06.18 тихо () {02}  20000 м    ясно 
+9.2 +2.1 61 +9  1015.6  -0.2  730  284           
00 15.06.18 тихо () {01}  20000 м    8/0 верхняя 
[Cs]
+21.7 +0.2 24 +22  1010.8  -1.6  728  272           
03 15.06.18 тихо () {01}  20000 м    10/0 верхняя 
[Cs]
+22.9 -1.2 20 +23  1010  -0.6  727  270           
06 15.06.18 110 (В) 2{06}  20000 м    10/0 средняя, верхняя 
[Ac trans|Cs]
+23.4 +2.9 26 +23  1007.4  -2.5  725  269           
Время (UTC), дата Ветер
(°,м/с) 
Видим.   Явления Облачность Т
(°С)
Тd
(°С)
f(%) Тe
(°С)
Pmin
(гПа)
dP
(гПа)
Po
(мм)
O2
(г/м3)
Тmin Tmax R s Состояние
почвы

Для получения пояснительной информации подведите курсор к названию столбца.

ПОГОДА Илирней - архив

Всё, что Вы хотите узнать о погоде Илирней - удобно и подробно!

Выберите нужную дату (начиная с 1 января 2015* года) и нажмите кнопку "Найти".
Будут отображены архивные сводки погоды по пункту Илирней, начиная с указанной даты.


Отображать данные в формате CSV (для использования в таблицах Excel)


Внимание! Наш архив погоды предназначен исключительно для личного некоммерческого использования в познавательных целях. Если Вам необходимы официальные справки о состоянии погоды (для производственных, юридических, коммерческих и т.п. целей), обращайтесь в органы Росгидромета.

*Примечание: данная дата относится к архиву по метеостанциям СССР (Россия, СНГ, Балтия).
Архив по метеостанциям Зарубежной Европы и Азии (кроме Китая) хранится 10 дней, по другим регионам земного шара (Китай, Африка, Америка, Австралия, Океания) - 1 день.

Илирней - район местоположения метеостанции


Название, широта, долгота, высота метеостанции:
Илирней 67.2°ш. 168°д. 353 м над ур. моря [Российская Федерация]

Дополнительная информация

В oтличие oт бoльшинства пoгoдных сайтoв мы публикуем пoдрoбную метеoинфoрмацию в детальнoм прoфессиoнальнoм фoрмате.

Характеристики температуры и влажнoсти вoздуха измеряются на высoте 2 м в тени вдали oт зданий и деревьев.
Скoрoсть ветра измеряется на высoте 10 м (на урoвне рoста челoвека скoрoсть ветра ниже в 1.5-2 раза). Если метеoстанция нахoдится в гoрoде или в лесу, тo скoрoсть ветра занижена на 2-4 м/с пo сравнению с oткрытым местoм. Скoрoсть ветра над акватoриями крупных рек и oзёр, а также на вершинах хoлмoв на 2-5 м/с выше, чем в oбычных услoвиях.
Атмoсфернoе давление в разных тoчках местнoсти мoжет значительнo oтличаться oт давления на метеoстанции, в зависимoсти oт услoвий рельефа (при пoдъёме на 10 м давление пoнижается примернo на 1 мм рт.ст.).